Time,TemperatureF,DewpointF,PressureIn,WindDirection,WindDirectionDegrees,WindSpeedMPH,WindSpeedGustMPH,Humidity,HourlyPrecipIn,Conditions,Clouds,dailyrainin,SoftwareType,DateUTC
2013-06-06 00:02:00,52.5,50.0,30.01,SW,218,7.0,11.0,91,0.00,,,0.00,meteohub,2013-06-06 07:02:00,
2013-06-06 00:07:00,52.3,49.8,30.01,SW,215,7.0,14.0,91,0.00,,,0.00,meteohub,2013-06-06 07:07:00,
2013-06-06 00:12:00,52.3,49.8,30.01,SW,218,9.0,14.0,91,0.00,,,0.00,meteohub,2013-06-06 07:12:00,
2013-06-06 00:17:00,52.3,49.8,30.01,SSW,213,4.0,12.0,91,0.00,,,0.00,meteohub,2013-06-06 07:17:00,
2013-06-06 00:22:00,52.3,49.8,30.01,SW,231,8.0,12.0,91,0.00,,,0.00,meteohub,2013-06-06 07:22:00,
2013-06-06 00:27:00,52.2,49.6,30.01,SW,234,8.0,11.0,91,0.00,,,0.00,meteohub,2013-06-06 07:27:00,
2013-06-06 00:32:00,52.2,49.6,30.01,SSW,206,6.0,11.0,91,0.00,,,0.00,meteohub,2013-06-06 07:32:00,
2013-06-06 00:37:00,52.2,49.8,30.01,SSW,202,7.0,10.0,92,0.00,,,0.00,meteohub,2013-06-06 07:37:00,
2013-06-06 00:42:00,52.2,49.6,30.01,SW,234,7.0,11.0,91,0.00,,,0.00,meteohub,2013-06-06 07:42:00,
2013-06-06 00:47:00,52.2,49.8,30.01,SSW,193,7.0,11.0,92,0.00,,,0.00,meteohub,2013-06-06 07:47:00,
2013-06-06 00:52:00,52.2,49.6,30.00,SSW,213,11.0,11.0,91,0.00,,,0.00,meteohub,2013-06-06 07:52:00,
2013-06-06 00:57:00,52.0,49.5,30.00,SSW,212,7.0,12.0,91,0.00,,,0.00,meteohub,2013-06-06 07:57:00,
2013-06-06 01:03:00,51.6,49.1,30.00,SW,215,6.0,12.0,91,0.00,,,0.00,meteohub,2013-06-06 08:03:00,
2013-06-06 01:08:00,51.8,49.6,30.00,SSW,212,7.0,12.0,92,0.00,,,0.00,meteohub,2013-06-06 08:08:00,
2013-06-06 01:13:00,51.8,49.6,30.00,WSW,238,10.0,12.0,92,0.00,,,0.00,meteohub,2013-06-06 08:13:00,
2013-06-06 01:18:00,51.8,49.6,30.00,SW,226,3.0,12.0,92,0.00,,,0.00,meteohub,2013-06-06 08:18:00,
2013-06-06 01:23:00,52.0,49.5,30.00,WSW,243,5.0,13.0,91,0.00,,,0.00,meteohub,2013-06-06 08:23:00,
2013-06-06 01:28:00,51.8,49.3,30.00,WSW,249,7.0,13.0,91,0.00,,,0.00,meteohub,2013-06-06 08:28:00,
2013-06-06 01:33:00,52.0,49.6,30.00,SW,218,6.0,11.0,92,0.00,,,0.00,meteohub,2013-06-06 08:33:00,
2013-06-06 01:38:00,52.0,49.6,30.00,WSW,242,8.0,11.0,92,0.00,,,0.00,meteohub,2013-06-06 08:38:00,
2013-06-06 01:43:00,52.0,49.6,30.00,SSW,205,7.0,12.0,92,0.00,,,0.00,meteohub,2013-06-06 08:43:00,
2013-06-06 01:49:00,52.0,49.6,30.00,South,189,6.0,12.0,92,0.00,,,0.00,meteohub,2013-06-06 08:49:00,
2013-06-06 01:54:00,52.2,49.8,29.99,SSW,205,9.0,12.0,92,0.00,,,0.00,meteohub,2013-06-06 08:54:00,
2013-06-06 01:59:00,52.0,49.5,29.99,SW,235,5.0,12.0,91,0.00,,,0.00,meteohub,2013-06-06 08:59:00,
2013-06-06 02:04:00,52.0,49.6,29.99,SSW,199,7.0,12.0,92,0.00,,,0.00,meteohub,2013-06-06 09:04:00,
2013-06-06 02:09:00,52.2,49.8,29.99,SW,231,4.0,11.0,92,0.00,,,0.00,meteohub,2013-06-06 09:09:00,
2013-06-06 02:14:00,52.2,49.8,29.99,SW,231,7.0,11.0,92,0.00,,,0.00,meteohub,2013-06-06 09:14:00,
2013-06-06 02:19:00,52.2,49.8,29.99,SW,226,5.0,11.0,92,0.00,,,0.00,meteohub,2013-06-06 09:19:00,
2013-06-06 02:25:00,52.2,49.8,29.99,SW,226,5.0,11.0,92,0.00,,,0.00,meteohub,2013-06-06 09:25:00,
2013-06-06 02:30:00,52.2,49.8,29.99,WSW,239,8.0,11.0,92,0.00,,,0.00,meteohub,2013-06-06 09:30:00,
2013-06-06 02:35:00,52.2,49.8,29.99,SW,223,7.0,11.0,92,0.00,,,0.00,meteohub,2013-06-06 09:35:00,
2013-06-06 02:40:00,52.2,49.8,29.99,SSW,203,7.0,11.0,92,0.00,,,0.00,meteohub,2013-06-06 09:40:00,
2013-06-06 02:45:00,52.2,49.8,29.99,SW,219,7.0,11.0,92,0.00,,,0.00,meteohub,2013-06-06 09:45:00,
2013-06-06 02:50:00,52.0,49.6,29.99,SSW,206,11.0,12.0,92,0.00,,,0.00,meteohub,2013-06-06 09:50:00,
2013-06-06 02:55:00,52.0,49.6,29.99,SSW,210,8.0,12.0,92,0.00,,,0.00,meteohub,2013-06-06 09:55:00,
2013-06-06 03:00:00,51.8,49.6,29.99,SW,218,9.0,12.0,92,0.00,,,0.00,meteohub,2013-06-06 10:00:00,
2013-06-06 03:06:00,51.8,49.8,29.99,SW,233,6.0,12.0,93,0.00,,,0.00,meteohub,2013-06-06 10:06:00,
2013-06-06 03:11:00,51.8,49.8,29.99,WSW,241,5.0,12.0,93,0.00,,,0.00,meteohub,2013-06-06 10:11:00,
2013-06-06 03:17:00,51.8,49.8,29.99,SW,224,4.0,10.0,93,0.00,,,0.00,meteohub,2013-06-06 10:17:00,
2013-06-06 03:22:00,51.6,49.6,29.99,SW,215,7.0,10.0,93,0.00,,,0.00,meteohub,2013-06-06 10:22:00,
2013-06-06 03:27:00,51.8,49.8,29.99,SW,218,11.0,11.0,93,0.00,,,0.00,meteohub,2013-06-06 10:27:00,
2013-06-06 03:32:00,51.6,49.6,29.99,SW,218,5.0,13.0,93,0.00,,,0.00,meteohub,2013-06-06 10:32:00,
2013-06-06 03:37:00,51.6,49.6,29.99,SSW,208,6.0,13.0,93,0.00,,,0.00,meteohub,2013-06-06 10:37:00,
2013-06-06 03:42:00,51.6,49.6,29.99,WSW,239,5.0,13.0,93,0.00,,,0.00,meteohub,2013-06-06 10:42:00,
2013-06-06 03:47:00,51.6,49.6,29.99,SSW,198,7.0,10.0,93,0.00,,,0.00,meteohub,2013-06-06 10:47:00,
2013-06-06 03:52:00,51.6,49.6,29.99,SW,219,8.0,10.0,93,0.00,,,0.00,meteohub,2013-06-06 10:52:00,
2013-06-06 03:57:00,51.4,49.5,29.99,SSW,210,6.0,10.0,93,0.00,,,0.00,meteohub,2013-06-06 10:57:00,
2013-06-06 04:02:00,51.3,49.3,29.99,SSW,209,7.0,12.0,93,0.00,,,0.00,meteohub,2013-06-06 11:02:00,
2013-06-06 04:07:00,51.3,49.3,29.99,SSW,206,7.0,12.0,93,0.00,,,0.00,meteohub,2013-06-06 11:07:00,
2013-06-06 04:13:00,51.3,49.3,29.99,SW,236,6.0,12.0,93,0.00,,,0.00,meteohub,2013-06-06 11:13:00,
2013-06-06 04:18:00,51.3,49.3,29.99,South,181,5.0,12.0,93,0.00,,,0.00,meteohub,2013-06-06 11:18:00,
2013-06-06 04:23:00,51.3,49.3,29.99,SW,219,8.0,11.0,93,0.00,,,0.00,meteohub,2013-06-06 11:23:00,
2013-06-06 04:28:00,51.3,49.1,29.99,SSW,210,4.0,11.0,92,0.00,,,0.00,meteohub,2013-06-06 11:28:00,
2013-06-06 04:33:00,51.4,49.3,29.99,SW,233,8.0,11.0,92,0.00,,,0.00,meteohub,2013-06-06 11:33:00,
2013-06-06 04:38:00,51.4,49.3,29.99,SSW,202,8.0,11.0,92,0.00,,,0.00,meteohub,2013-06-06 11:38:00,
2013-06-06 04:43:00,51.4,49.3,29.99,WSW,237,4.0,10.0,92,0.00,,,0.00,meteohub,2013-06-06 11:43:00,
2013-06-06 04:48:00,51.3,49.1,29.99,SW,214,7.0,10.0,92,0.00,,,0.00,meteohub,2013-06-06 11:48:00,
2013-06-06 04:53:00,51.3,49.1,29.99,South,191,4.0,10.0,92,0.00,,,0.00,meteohub,2013-06-06 11:53:00,
2013-06-06 04:59:00,51.3,49.1,29.99,SW,216,6.0,10.0,92,0.00,,,0.00,meteohub,2013-06-06 11:59:00,
2013-06-06 05:04:00,51.3,49.1,29.99,SSE,167,7.0,10.0,92,0.00,,,0.00,meteohub,2013-06-06 12:04:00,
2013-06-06 05:09:00,51.3,49.1,29.99,SSW,207,7.0,10.0,92,0.00,,,0.00,meteohub,2013-06-06 12:09:00,
2013-06-06 05:14:00,51.3,49.1,29.99,SW,224,6.0,10.0,92,0.00,,,0.00,meteohub,2013-06-06 12:14:00,
2013-06-06 05:19:00,51.4,49.3,29.99,SSW,198,10.0,10.0,92,0.00,,,0.00,meteohub,2013-06-06 12:19:00,
2013-06-06 05:24:00,51.4,49.3,29.99,SW,217,4.0,8.0,92,0.00,,,0.00,meteohub,2013-06-06 12:24:00,
2013-06-06 05:30:00,51.4,49.3,29.99,SW,225,5.0,12.0,92,0.00,,,0.00,meteohub,2013-06-06 12:30:00,
2013-06-06 05:35:00,51.4,49.3,29.99,SSW,206,7.0,9.0,92,0.00,,,0.00,meteohub,2013-06-06 12:35:00,
2013-06-06 05:40:00,51.4,49.3,29.99,SSW,204,4.0,10.0,92,0.00,,,0.00,meteohub,2013-06-06 12:40:00,
2013-06-06 05:46:00,51.4,49.5,29.99,South,181,6.0,10.0,93,0.00,,,0.00,meteohub,2013-06-06 12:46:00,
2013-06-06 05:52:00,51.4,49.5,29.99,SW,223,7.0,10.0,93,0.00,,,0.00,meteohub,2013-06-06 12:52:00,
2013-06-06 05:57:00,51.3,49.3,30.00,South,191,5.0,10.0,93,0.00,,,0.00,meteohub,2013-06-06 12:57:00,
2013-06-06 06:02:00,51.4,49.5,30.00,SSW,209,4.0,10.0,93,0.00,,,0.00,meteohub,2013-06-06 13:02:00,
2013-06-06 06:07:00,51.4,49.5,30.00,SW,226,7.0,10.0,93,0.00,,,0.00,meteohub,2013-06-06 13:07:00,
2013-06-06 06:12:00,51.3,49.3,30.00,WSW,241,10.0,11.0,93,0.00,,,0.00,meteohub,2013-06-06 13:12:00,
2013-06-06 06:18:00,51.3,49.3,30.00,SSW,207,7.0,13.0,93,0.00,,,0.00,meteohub,2013-06-06 13:18:00,
2013-06-06 06:23:00,51.3,49.3,29.99,SSW,208,3.0,13.0,93,0.00,,,0.00,meteohub,2013-06-06 13:23:00,
2013-06-06 06:28:00,51.3,49.3,30.00,SW,214,6.0,13.0,93,0.00,,,0.00,meteohub,2013-06-06 13:28:00,
2013-06-06 06:33:00,51.3,49.3,30.00,SW,224,6.0,13.0,93,0.00,,,0.00,meteohub,2013-06-06 13:33:00,
2013-06-06 06:38:00,51.3,49.3,30.00,SW,217,5.0,13.0,93,0.00,,,0.00,meteohub,2013-06-06 13:38:00,
2013-06-06 06:43:00,51.4,49.5,29.99,SW,223,4.0,13.0,93,0.00,,,0.00,meteohub,2013-06-06 13:43:00,
2013-06-06 06:49:00,51.4,49.8,30.00,SW,215,10.0,13.0,94,0.00,,,0.00,meteohub,2013-06-06 13:49:00,
2013-06-06 06:54:00,51.4,49.8,30.00,SW,228,7.0,10.0,94,0.00,,,0.00,meteohub,2013-06-06 13:54:00,
2013-06-06 06:59:00,51.4,49.5,30.00,SSW,206,6.0,11.0,93,0.00,,,0.00,meteohub,2013-06-06 13:59:00,
2013-06-06 07:04:00,51.6,49.6,30.00,WSW,238,7.0,11.0,93,0.00,,,0.00,meteohub,2013-06-06 14:04:00,
2013-06-06 07:10:00,51.6,49.6,30.00,WSW,237,4.0,11.0,93,0.00,,,0.00,meteohub,2013-06-06 14:10:00,
2013-06-06 07:15:00,51.6,49.6,30.00,SW,220,5.0,11.0,93,0.00,,,0.00,meteohub,2013-06-06 14:15:00,
2013-06-06 07:20:00,51.6,49.6,30.00,SSW,210,8.0,11.0,93,0.00,,,0.00,meteohub,2013-06-06 14:20:00,
2013-06-06 07:25:00,51.6,49.6,30.00,WSW,242,8.0,13.0,93,0.00,,,0.00,meteohub,2013-06-06 14:25:00,
2013-06-06 07:30:00,51.8,49.8,30.00,SW,215,6.0,13.0,93,0.00,,,0.00,meteohub,2013-06-06 14:30:00,
2013-06-06 07:36:00,51.8,49.8,30.00,WSW,243,8.0,13.0,93,0.00,,,0.00,meteohub,2013-06-06 14:36:00,
2013-06-06 07:41:00,51.8,49.8,30.00,SSW,204,8.0,12.0,93,0.00,,,0.00,meteohub,2013-06-06 14:41:00,
2013-06-06 07:46:00,51.8,49.8,30.00,SSW,195,9.0,12.0,93,0.00,,,0.00,meteohub,2013-06-06 14:46:00,
2013-06-06 07:51:00,51.8,49.8,30.00,SSW,213,10.0,11.0,93,0.00,,,0.00,meteohub,2013-06-06 14:51:00,
2013-06-06 07:56:00,52.0,49.6,30.01,SW,220,4.0,11.0,92,0.00,,,0.00,meteohub,2013-06-06 14:56:00,
2013-06-06 08:02:00,52.0,49.6,30.01,SW,215,10.0,12.0,92,0.00,,,0.00,meteohub,2013-06-06 15:02:00,
2013-06-06 08:07:00,52.2,49.8,30.01,WSW,239,9.0,12.0,92,0.00,,,0.00,meteohub,2013-06-06 15:07:00,
2013-06-06 08:12:00,52.3,50.0,30.01,WSW,241,8.0,12.0,92,0.00,,,0.00,meteohub,2013-06-06 15:12:00,
2013-06-06 08:17:00,52.3,49.8,30.01,SW,235,5.0,12.0,91,0.00,,,0.00,meteohub,2013-06-06 15:17:00,
2013-06-06 08:23:00,52.3,49.8,30.01,WSW,239,6.0,12.0,91,0.00,,,0.00,meteohub,2013-06-06 15:23:00,
2013-06-06 08:28:00,52.5,50.2,30.01,SW,233,11.0,14.0,92,0.00,,,0.00,meteohub,2013-06-06 15:28:00,
2013-06-06 08:33:00,52.5,50.0,30.01,SW,234,5.0,14.0,91,0.00,,,0.00,meteohub,2013-06-06 15:33:00,
2013-06-06 08:39:00,52.7,50.2,30.01,WSW,243,7.0,14.0,91,0.00,,,0.00,meteohub,2013-06-06 15:39:00,
2013-06-06 08:44:00,52.7,50.2,30.01,WSW,244,7.0,12.0,91,0.00,,,0.00,meteohub,2013-06-06 15:44:00,
2013-06-06 08:49:00,53.1,50.5,30.01,West,266,8.0,13.0,91,0.00,,,0.00,meteohub,2013-06-06 15:49:00,
2013-06-06 08:54:00,53.1,50.2,30.01,WSW,238,10.0,14.0,90,0.00,,,0.00,meteohub,2013-06-06 15:54:00,
2013-06-06 08:59:00,53.2,50.4,30.01,WSW,239,5.0,14.0,90,0.00,,,0.00,meteohub,2013-06-06 15:59:00,
2013-06-06 09:05:00,53.4,50.5,30.01,WSW,249,10.0,14.0,90,0.00,,,0.00,meteohub,2013-06-06 16:05:00,
2013-06-06 09:10:00,53.4,50.5,30.01,WSW,249,7.0,14.0,90,0.00,,,0.00,meteohub,2013-06-06 16:10:00,
2013-06-06 09:15:00,53.6,50.7,30.01,SW,227,11.0,13.0,90,0.00,,,0.00,meteohub,2013-06-06 16:15:00,
2013-06-06 09:20:00,53.4,50.5,30.01,SW,234,12.0,13.0,90,0.00,,,0.00,meteohub,2013-06-06 16:20:00,
2013-06-06 09:25:00,53.4,50.5,30.01,SW,235,11.0,13.0,90,0.00,,,0.00,meteohub,2013-06-06 16:25:00,
2013-06-06 09:31:00,53.2,50.7,30.01,WSW,243,11.0,14.0,91,0.00,,,0.00,meteohub,2013-06-06 16:31:00,
2013-06-06 09:36:00,53.4,50.5,30.01,SW,235,5.0,15.0,90,0.00,,,0.00,meteohub,2013-06-06 16:36:00,
2013-06-06 09:41:00,53.8,51.3,30.01,WSW,258,9.0,15.0,91,0.00,,,0.00,meteohub,2013-06-06 16:41:00,
2013-06-06 09:46:00,54.0,51.1,30.01,SSW,211,7.0,15.0,90,0.00,,,0.00,meteohub,2013-06-06 16:46:00,
2013-06-06 09:51:00,54.0,50.7,30.01,WSW,243,8.0,13.0,89,0.00,,,0.00,meteohub,2013-06-06 16:51:00,
2013-06-06 09:56:00,54.3,51.1,30.01,SSW,211,6.0,14.0,89,0.00,,,0.00,meteohub,2013-06-06 16:56:00,
2013-06-06 10:02:00,54.7,51.3,30.01,WSW,249,8.0,14.0,88,0.00,,,0.00,meteohub,2013-06-06 17:02:00,
2013-06-06 10:07:00,54.7,50.9,30.01,SSW,211,8.0,14.0,87,0.00,,,0.00,meteohub,2013-06-06 17:07:00,
2013-06-06 10:12:00,55.0,51.3,30.01,WSW,244,12.0,14.0,87,0.00,,,0.00,meteohub,2013-06-06 17:12:00,
2013-06-06 10:17:00,55.0,51.3,30.01,SW,225,8.0,14.0,87,0.00,,,0.00,meteohub,2013-06-06 17:17:00,
2013-06-06 10:22:00,55.0,51.3,30.00,SW,221,9.0,14.0,87,0.00,,,0.00,meteohub,2013-06-06 17:22:00,
2013-06-06 10:27:00,55.6,51.8,30.00,WSW,237,5.0,14.0,87,0.00,,,0.00,meteohub,2013-06-06 17:27:00,
2013-06-06 10:32:00,55.8,51.6,30.00,SW,220,6.0,14.0,86,0.00,,,0.00,meteohub,2013-06-06 17:32:00,
2013-06-06 10:38:00,55.9,51.8,30.00,SW,214,6.0,14.0,86,0.00,,,0.00,meteohub,2013-06-06 17:38:00,
2013-06-06 10:43:00,55.9,51.4,30.00,WSW,240,8.0,13.0,85,0.00,,,0.00,meteohub,2013-06-06 17:43:00,
2013-06-06 10:48:00,55.9,51.8,30.00,SSW,198,7.0,13.0,86,0.00,,,0.00,meteohub,2013-06-06 17:48:00,
2013-06-06 10:53:00,56.3,51.8,30.00,SSW,207,7.0,11.0,85,0.00,,,0.00,meteohub,2013-06-06 17:53:00,
2013-06-06 10:59:00,56.7,52.2,30.00,SSW,200,5.0,11.0,85,0.00,,,0.00,meteohub,2013-06-06 17:59:00,
2013-06-06 11:04:00,57.4,52.0,30.00,SW,220,6.0,11.0,82,0.00,,,0.00,meteohub,2013-06-06 18:04:00,
2013-06-06 11:09:00,57.4,52.0,30.00,SW,230,3.0,11.0,82,0.00,,,0.00,meteohub,2013-06-06 18:09:00,
2013-06-06 11:14:00,58.3,52.2,29.99,South,182,8.0,11.0,80,0.00,,,0.00,meteohub,2013-06-06 18:14:00,
2013-06-06 11:19:00,57.7,52.0,29.99,SSW,205,4.0,11.0,81,0.00,,,0.00,meteohub,2013-06-06 18:19:00,
2013-06-06 11:24:00,57.9,52.2,29.99,SSW,196,5.0,11.0,81,0.00,,,0.00,meteohub,2013-06-06 18:24:00,
2013-06-06 11:29:00,57.9,51.8,29.99,SSW,194,3.0,11.0,80,0.00,,,0.00,meteohub,2013-06-06 18:29:00,
2013-06-06 11:35:00,57.9,51.8,29.99,South,183,8.0,11.0,80,0.00,,,0.00,meteohub,2013-06-06 18:35:00,
2013-06-06 11:40:00,57.9,51.8,29.99,South,177,8.0,11.0,80,0.00,,,0.00,meteohub,2013-06-06 18:40:00,
2013-06-06 11:45:00,58.1,52.7,29.99,South,189,6.0,12.0,82,0.00,,,0.00,meteohub,2013-06-06 18:45:00,
2013-06-06 11:50:00,58.3,52.5,29.99,SSW,199,3.0,12.0,81,0.00,,,0.00,meteohub,2013-06-06 18:50:00,
2013-06-06 11:56:00,58.6,52.5,29.99,SW,215,7.0,11.0,80,0.00,,,0.00,meteohub,2013-06-06 18:56:00,
2013-06-06 12:01:00,58.8,52.7,29.99,South,186,10.0,10.0,80,0.00,,,0.00,meteohub,2013-06-06 19:01:00,
2013-06-06 12:07:00,58.5,52.0,29.99,South,188,7.0,11.0,79,0.00,,,0.00,meteohub,2013-06-06 19:07:00,
2013-06-06 12:12:00,58.6,52.5,29.99,SSE,159,7.0,11.0,80,0.00,,,0.00,meteohub,2013-06-06 19:12:00,
2013-06-06 12:17:00,59.0,53.2,29.98,South,182,8.0,11.0,81,0.00,,,0.00,meteohub,2013-06-06 19:17:00,
2013-06-06 12:22:00,59.7,52.9,29.98,South,190,4.0,11.0,78,0.00,,,0.00,meteohub,2013-06-06 19:22:00,
2013-06-06 12:27:00,60.1,54.0,29.98,SSE,158,5.0,11.0,80,0.00,,,0.00,meteohub,2013-06-06 19:27:00,
2013-06-06 12:32:00,59.4,52.9,29.98,SSW,199,7.0,10.0,79,0.00,,,0.00,meteohub,2013-06-06 19:32:00,
2013-06-06 12:35:00,58.8,53.1,29.98,SW,221,8.0,13.0,81,0.00,,,0.00,meteohub,2013-06-06 19:35:00,
2013-06-06 12:41:00,58.6,52.9,29.98,South,174,8.0,13.0,81,0.00,,,0.00,meteohub,2013-06-06 19:41:00,
2013-06-06 12:46:00,58.3,52.9,29.98,SSW,199,7.0,14.0,82,0.00,,,0.00,meteohub,2013-06-06 19:46:00,
2013-06-06 12:52:00,58.6,53.2,29.98,SSW,212,9.0,14.0,82,0.00,,,0.00,meteohub,2013-06-06 19:52:00,
2013-06-06 12:57:00,58.8,53.4,29.98,South,181,8.0,14.0,82,0.00,,,0.00,meteohub,2013-06-06 19:57:00,
2013-06-06 13:03:00,58.6,53.2,29.98,SSW,210,9.0,14.0,82,0.00,,,0.00,meteohub,2013-06-06 20:03:00,
2013-06-06 13:08:00,58.3,52.9,29.98,SSW,199,9.0,15.0,82,0.00,,,0.00,meteohub,2013-06-06 20:08:00,
2013-06-06 13:13:00,58.1,52.9,29.98,SSW,198,9.0,15.0,83,0.00,,,0.00,meteohub,2013-06-06 20:13:00,
2013-06-06 13:18:00,57.9,52.5,29.98,South,185,10.0,14.0,82,0.00,,,0.00,meteohub,2013-06-06 20:18:00,
2013-06-06 13:23:00,58.3,52.9,29.98,SSW,209,4.0,14.0,82,0.00,,,0.00,meteohub,2013-06-06 20:23:00,
2013-06-06 13:28:00,59.0,53.2,29.97,South,172,7.0,13.0,81,0.00,,,0.00,meteohub,2013-06-06 20:28:00,
2013-06-06 13:33:00,59.0,52.9,29.97,SSW,207,8.0,13.0,80,0.00,,,0.00,meteohub,2013-06-06 20:33:00,
2013-06-06 13:38:00,59.2,53.1,29.97,South,183,10.0,11.0,80,0.00,,,0.00,meteohub,2013-06-06 20:38:00,
2013-06-06 13:44:00,59.0,53.2,29.97,SW,223,10.0,12.0,81,0.00,,,0.00,meteohub,2013-06-06 20:44:00,
2013-06-06 13:49:00,58.6,52.9,29.97,South,184,12.0,13.0,81,0.00,,,0.00,meteohub,2013-06-06 20:49:00,
2013-06-06 13:54:00,58.6,53.2,29.97,SSW,210,7.0,13.0,82,0.00,,,0.00,meteohub,2013-06-06 20:54:00,
2013-06-06 13:59:00,58.8,53.4,29.96,South,187,7.0,13.0,82,0.00,,,0.00,meteohub,2013-06-06 20:59:00,
2013-06-06 14:04:00,59.7,54.0,29.96,SSW,200,9.0,13.0,81,0.00,,,0.00,meteohub,2013-06-06 21:04:00,
2013-06-06 14:09:00,60.3,54.1,29.96,South,175,11.0,13.0,80,0.00,,,0.00,meteohub,2013-06-06 21:09:00,
2013-06-06 14:14:00,59.9,53.4,29.96,South,179,11.0,13.0,79,0.00,,,0.00,meteohub,2013-06-06 21:14:00,
2013-06-06 14:20:00,59.2,53.1,29.96,SSW,199,9.0,14.0,80,0.00,,,0.00,meteohub,2013-06-06 21:20:00,
2013-06-06 14:25:00,59.2,53.1,29.96,South,187,12.0,16.0,80,0.00,,,0.00,meteohub,2013-06-06 21:25:00,
2013-06-06 14:30:00,59.4,53.2,29.96,SSW,200,8.0,16.0,80,0.00,,,0.00,meteohub,2013-06-06 21:30:00,
2013-06-06 14:35:00,59.5,53.4,29.96,SSW,197,9.0,14.0,80,0.00,,,0.00,meteohub,2013-06-06 21:35:00,
2013-06-06 14:40:00,59.4,53.2,29.96,SSW,193,9.0,15.0,80,0.00,,,0.00,meteohub,2013-06-06 21:40:00,
2013-06-06 14:45:00,58.8,52.7,29.95,South,176,11.0,16.0,80,0.00,,,0.00,meteohub,2013-06-06 21:45:00,
2013-06-06 14:50:00,58.8,52.7,29.95,SSW,212,8.0,16.0,80,0.00,,,0.00,meteohub,2013-06-06 21:50:00,
2013-06-06 14:56:00,58.6,52.9,29.95,South,188,9.0,16.0,81,0.00,,,0.00,meteohub,2013-06-06 21:56:00,
2013-06-06 15:01:00,59.0,53.6,29.95,SSW,208,11.0,16.0,82,0.00,,,0.00,meteohub,2013-06-06 22:01:00,
2013-06-06 15:06:00,58.8,52.7,29.94,SSW,197,11.0,16.0,80,0.00,,,0.00,meteohub,2013-06-06 22:06:00,
2013-06-06 15:11:00,58.5,53.1,29.94,South,171,11.0,16.0,82,0.00,,,0.00,meteohub,2013-06-06 22:11:00,
2013-06-06 15:16:00,59.4,53.8,29.94,South,181,7.0,16.0,82,0.00,,,0.00,meteohub,2013-06-06 22:16:00,
2013-06-06 15:21:00,59.4,53.6,29.94,South,191,13.0,16.0,81,0.00,,,0.00,meteohub,2013-06-06 22:21:00,
2013-06-06 15:27:00,59.2,53.6,29.94,South,174,10.0,16.0,82,0.00,,,0.00,meteohub,2013-06-06 22:27:00,
2013-06-06 15:32:00,59.2,53.6,29.94,South,174,8.0,16.0,82,0.00,,,0.00,meteohub,2013-06-06 22:32:00,
2013-06-06 15:37:00,58.6,53.2,29.94,South,190,10.0,16.0,82,0.00,,,0.00,meteohub,2013-06-06 22:37:00,
2013-06-06 15:42:00,59.2,53.6,29.94,South,171,11.0,17.0,82,0.00,,,0.00,meteohub,2013-06-06 22:42:00,
2013-06-06 15:47:00,59.4,53.6,29.93,South,170,15.0,17.0,81,0.00,,,0.00,meteohub,2013-06-06 22:47:00,
2013-06-06 15:52:00,58.6,53.2,29.93,SSE,155,9.0,17.0,82,0.00,,,0.00,meteohub,2013-06-06 22:52:00,
2013-06-06 15:57:00,58.6,53.4,29.93,SSE,158,12.0,18.0,83,0.00,,,0.00,meteohub,2013-06-06 22:57:00,
2013-06-06 16:03:00,58.5,53.1,29.93,South,187,9.0,18.0,82,0.00,,,0.00,meteohub,2013-06-06 23:03:00,
2013-06-06 16:08:00,57.9,52.5,29.93,South,185,12.0,19.0,82,0.00,,,0.00,meteohub,2013-06-06 23:08:00,
2013-06-06 16:13:00,57.6,52.5,29.93,South,179,10.0,21.0,83,0.00,,,0.00,meteohub,2013-06-06 23:13:00,
2013-06-06 16:18:00,57.6,52.7,29.92,SSW,203,10.0,21.0,84,0.00,,,0.00,meteohub,2013-06-06 23:18:00,
2013-06-06 16:23:00,57.9,53.1,29.92,SSW,198,6.0,21.0,84,0.00,,,0.00,meteohub,2013-06-06 23:23:00,
2013-06-06 16:28:00,57.4,52.3,29.92,South,183,12.0,20.0,83,0.00,,,0.00,meteohub,2013-06-06 23:28:00,
2013-06-06 16:33:00,57.6,52.7,29.92,SSE,154,7.0,19.0,84,0.00,,,0.00,meteohub,2013-06-06 23:33:00,
2013-06-06 16:38:00,58.1,52.9,29.92,SSE,148,12.0,19.0,83,0.00,,,0.00,meteohub,2013-06-06 23:38:00,
2013-06-06 16:43:00,57.7,52.9,29.92,SSE,156,11.0,19.0,84,0.00,,,0.00,meteohub,2013-06-06 23:43:00,
2013-06-06 16:48:00,57.7,52.7,29.92,South,181,13.0,19.0,83,0.00,,,0.00,meteohub,2013-06-06 23:48:00,
2013-06-06 16:53:00,57.6,53.1,29.92,SSE,155,7.0,19.0,85,0.00,,,0.00,meteohub,2013-06-06 23:53:00,
2013-06-06 16:58:00,57.4,52.5,29.92,SSE,168,7.0,19.0,84,0.00,,,0.00,meteohub,2013-06-06 23:58:00,
2013-06-06 17:03:00,57.0,52.5,29.92,SSE,167,14.0,19.0,85,0.00,,,0.00,meteohub,2013-06-07 00:03:00,
2013-06-06 17:08:00,57.2,53.1,29.92,SSE,149,9.0,19.0,86,0.00,,,0.00,meteohub,2013-06-07 00:08:00,
2013-06-06 17:13:00,57.7,52.9,29.92,SSW,199,13.0,18.0,84,0.00,,,0.00,meteohub,2013-06-07 00:13:00,
2013-06-06 17:19:00,57.0,52.2,29.92,South,172,7.0,18.0,84,0.00,,,0.00,meteohub,2013-06-07 00:19:00,
2013-06-06 17:24:00,56.7,52.2,29.92,South,170,12.0,20.0,85,0.00,,,0.00,meteohub,2013-06-07 00:24:00,
2013-06-06 17:29:00,57.0,52.5,29.92,South,176,10.0,22.0,85,0.00,,,0.00,meteohub,2013-06-07 00:29:00,
2013-06-06 17:34:00,56.7,52.2,29.92,South,172,9.0,22.0,85,0.00,,,0.00,meteohub,2013-06-07 00:34:00,
2013-06-06 17:39:00,56.8,52.3,29.91,South,173,13.0,18.0,85,0.00,,,0.00,meteohub,2013-06-07 00:39:00,
2013-06-06 17:44:00,57.0,52.5,29.91,South,178,21.0,21.0,85,0.00,,,0.00,meteohub,2013-06-07 00:44:00,
2013-06-06 17:49:00,56.8,52.3,29.92,South,187,7.0,18.0,85,0.00,,,0.00,meteohub,2013-06-07 00:49:00,
2013-06-06 17:54:00,57.0,52.5,29.91,SSE,162,10.0,21.0,85,0.00,,,0.00,meteohub,2013-06-07 00:54:00,
2013-06-06 17:59:00,57.4,52.9,29.91,South,169,7.0,21.0,85,0.00,,,0.00,meteohub,2013-06-07 00:59:00,
2013-06-06 18:04:00,57.2,53.1,29.91,SSE,162,4.0,16.0,86,0.00,,,0.00,meteohub,2013-06-07 01:04:00,
2013-06-06 18:09:00,57.6,53.1,29.91,SSE,156,8.0,16.0,85,0.00,,,0.00,meteohub,2013-06-07 01:09:00,
2013-06-06 18:15:00,57.4,53.2,29.91,South,171,11.0,16.0,86,0.00,,,0.00,meteohub,2013-06-07 01:15:00,
2013-06-06 18:20:00,57.4,52.9,29.91,South,174,12.0,15.0,85,0.00,,,0.00,meteohub,2013-06-07 01:20:00,
2013-06-06 18:25:00,57.0,52.5,29.91,South,178,8.0,17.0,85,0.00,,,0.00,meteohub,2013-06-07 01:25:00,
2013-06-06 18:30:00,57.4,53.2,29.92,SSE,162,12.0,17.0,86,0.00,,,0.00,meteohub,2013-06-07 01:30:00,
2013-06-06 18:35:00,56.8,52.7,29.92,SSW,194,7.0,19.0,86,0.00,,,0.00,meteohub,2013-06-07 01:35:00,
2013-06-06 18:40:00,56.5,52.3,29.91,SSE,154,11.0,19.0,86,0.00,,,0.00,meteohub,2013-06-07 01:40:00,
2013-06-06 18:46:00,56.1,52.3,29.91,SSE,166,9.0,19.0,87,0.00,,,0.00,meteohub,2013-06-07 01:46:00,
2013-06-06 18:51:00,56.1,52.3,29.91,SE,135,13.0,16.0,87,0.00,,,0.00,meteohub,2013-06-07 01:51:00,
2013-06-06 18:56:00,55.9,52.5,29.91,SSE,168,7.0,17.0,88,0.00,,,0.00,meteohub,2013-06-07 01:56:00,
2013-06-06 19:01:00,55.9,52.2,29.91,South,181,12.0,17.0,87,0.00,,,0.00,meteohub,2013-06-07 02:01:00,
2013-06-06 19:06:00,55.8,52.3,29.91,SSE,163,11.0,17.0,88,0.00,,,0.00,meteohub,2013-06-07 02:06:00,
2013-06-06 19:11:00,55.8,52.3,29.91,SSW,195,11.0,19.0,88,0.00,,,0.00,meteohub,2013-06-07 02:11:00,
2013-06-06 19:16:00,55.6,52.2,29.92,SSW,199,13.0,19.0,88,0.00,,,0.00,meteohub,2013-06-07 02:16:00,
2013-06-06 19:21:00,55.2,52.0,29.91,South,175,9.0,19.0,89,0.00,,,0.00,meteohub,2013-06-07 02:21:00,
2013-06-06 19:26:00,55.2,52.0,29.92,South,188,8.0,19.0,89,0.00,,,0.00,meteohub,2013-06-07 02:26:00,
2013-06-06 19:32:00,55.0,51.8,29.92,South,171,7.0,19.0,89,0.00,,,0.00,meteohub,2013-06-07 02:32:00,
2013-06-06 19:37:00,54.7,51.4,29.92,South,186,11.0,18.0,89,0.00,,,0.00,meteohub,2013-06-07 02:37:00,
2013-06-06 19:42:00,54.3,51.4,29.93,SSW,194,15.0,21.0,90,0.00,,,0.00,meteohub,2013-06-07 02:42:00,
2013-06-06 19:47:00,54.1,51.3,29.92,SSW,203,10.0,24.0,90,0.00,,,0.00,meteohub,2013-06-07 02:47:00,
2013-06-06 19:52:00,54.0,51.4,29.92,South,182,10.0,24.0,91,0.00,,,0.00,meteohub,2013-06-07 02:52:00,
2013-06-06 19:57:00,53.8,51.3,29.93,South,182,11.0,22.0,91,0.00,,,0.00,meteohub,2013-06-07 02:57:00,
2013-06-06 20:02:00,53.6,51.1,29.92,SSE,166,12.0,22.0,91,0.00,,,0.00,meteohub,2013-06-07 03:02:00,
2013-06-06 20:07:00,53.8,51.4,29.93,South,186,11.0,23.0,92,0.00,,,0.00,meteohub,2013-06-07 03:07:00,
2013-06-06 20:12:00,53.8,51.3,29.93,South,184,12.0,23.0,91,0.00,,,0.00,meteohub,2013-06-07 03:12:00,
2013-06-06 20:17:00,53.8,51.4,29.93,South,191,8.0,22.0,92,0.00,,,0.00,meteohub,2013-06-07 03:17:00,
2013-06-06 20:23:00,53.8,51.4,29.93,South,184,16.0,22.0,92,0.00,,,0.00,meteohub,2013-06-07 03:23:00,
2013-06-06 20:28:00,53.6,51.3,29.93,South,181,13.0,24.0,92,0.00,,,0.00,meteohub,2013-06-07 03:28:00,
2013-06-06 20:33:00,53.2,50.9,29.93,South,190,11.0,24.0,92,0.00,,,0.00,meteohub,2013-06-07 03:33:00,
2013-06-06 20:38:00,53.1,50.7,29.93,South,185,10.0,24.0,92,0.00,,,0.00,meteohub,2013-06-07 03:38:00,
2013-06-06 20:43:00,53.2,51.3,29.93,South,177,10.0,22.0,93,0.00,,,0.00,meteohub,2013-06-07 03:43:00,
2013-06-06 20:48:00,53.4,51.1,29.93,SSW,192,15.0,19.0,92,0.00,,,0.00,meteohub,2013-06-07 03:48:00,
2013-06-06 20:53:00,53.2,50.9,29.93,South,189,12.0,19.0,92,0.00,,,0.00,meteohub,2013-06-07 03:53:00,
2013-06-06 20:58:00,53.2,50.9,29.93,SSW,204,13.0,17.0,92,0.00,,,0.00,meteohub,2013-06-07 03:58:00,
2013-06-06 21:01:00,53.2,50.9,29.93,SSE,168,5.0,16.0,92,0.00,,,0.00,meteohub,2013-06-07 04:01:00,
2013-06-06 21:02:00,53.2,50.9,29.93,South,183,18.0,18.0,92,0.00,,,0.00,meteohub,2013-06-07 04:02:00,
2013-06-06 21:03:00,53.2,50.9,29.93,South,183,9.0,16.0,92,0.00,,,0.00,meteohub,2013-06-07 04:03:00,
2013-06-06 21:08:00,53.2,51.3,29.94,South,182,16.0,20.0,93,0.00,,,0.00,meteohub,2013-06-07 04:08:00,
2013-06-06 21:13:00,53.1,51.1,29.94,SSW,202,13.0,20.0,93,0.00,,,0.00,meteohub,2013-06-07 04:13:00,
2013-06-06 21:18:00,53.1,51.1,29.94,South,185,12.0,20.0,93,0.00,,,0.00,meteohub,2013-06-07 04:18:00,
2013-06-06 21:24:00,53.1,51.1,29.94,SSW,202,14.0,20.0,93,0.00,,,0.00,meteohub,2013-06-07 04:24:00,
2013-06-06 21:29:00,53.1,51.1,29.94,South,169,7.0,19.0,93,0.00,,,0.00,meteohub,2013-06-07 04:29:00,
2013-06-06 21:34:00,52.9,50.9,29.94,SSW,199,14.0,19.0,93,0.00,,,0.00,meteohub,2013-06-07 04:34:00,
2013-06-06 21:39:00,52.5,50.5,29.94,South,187,8.0,21.0,93,0.00,,,0.00,meteohub,2013-06-07 04:39:00,
2013-06-06 21:44:00,52.5,50.5,29.94,South,175,12.0,21.0,93,0.00,,,0.00,meteohub,2013-06-07 04:44:00,
2013-06-06 21:49:00,52.7,50.7,29.94,South,182,11.0,21.0,93,0.00,,,0.00,meteohub,2013-06-07 04:49:00,
2013-06-06 21:54:00,52.7,51.1,29.95,South,179,11.0,21.0,94,0.00,,,0.00,meteohub,2013-06-07 04:54:00,
2013-06-06 21:59:00,52.7,51.1,29.95,SSW,203,10.0,21.0,94,0.00,,,0.00,meteohub,2013-06-07 04:59:00,
2013-06-06 22:05:00,52.7,51.1,29.95,South,191,9.0,19.0,94,0.00,,,0.00,meteohub,2013-06-07 05:05:00,
2013-06-06 22:10:00,52.7,51.1,29.95,South,174,9.0,20.0,94,0.00,,,0.00,meteohub,2013-06-07 05:10:00,
2013-06-06 22:15:00,52.5,50.9,29.95,South,172,10.0,21.0,94,0.00,,,0.00,meteohub,2013-06-07 05:15:00,
2013-06-06 22:20:00,52.5,50.9,29.95,SSW,199,9.0,21.0,94,0.00,,,0.00,meteohub,2013-06-07 05:20:00,
2013-06-06 22:25:00,52.5,50.9,29.95,South,185,15.0,21.0,94,0.00,,,0.00,meteohub,2013-06-07 05:25:00,
2013-06-06 22:30:00,52.9,51.3,29.95,South,188,10.0,23.0,94,0.00,,,0.00,meteohub,2013-06-07 05:30:00,
2013-06-06 22:35:00,53.1,51.4,29.96,SSW,205,16.0,23.0,94,0.00,,,0.00,meteohub,2013-06-07 05:35:00,
2013-06-06 22:40:00,52.7,51.1,29.96,South,187,7.0,22.0,94,0.00,,,0.00,meteohub,2013-06-07 05:40:00,
2013-06-06 22:46:00,52.9,51.3,29.95,South,170,9.0,22.0,94,0.00,,,0.00,meteohub,2013-06-07 05:46:00,
2013-06-06 22:51:00,52.9,51.3,29.95,SSW,196,15.0,22.0,94,0.00,,,0.00,meteohub,2013-06-07 05:51:00,
2013-06-06 22:56:00,52.5,50.9,29.95,SW,216,17.0,19.0,94,0.00,,,0.00,meteohub,2013-06-07 05:56:00,
2013-06-06 23:01:00,52.7,51.1,29.95,SW,216,9.0,22.0,94,0.00,,,0.00,meteohub,2013-06-07 06:01:00,
2013-06-06 23:07:00,52.5,50.9,29.95,SSW,211,11.0,22.0,94,0.00,,,0.00,meteohub,2013-06-07 06:07:00,
2013-06-06 23:12:00,52.5,50.9,29.95,South,187,14.0,19.0,94,0.00,,,0.00,meteohub,2013-06-07 06:12:00,
2013-06-06 23:17:00,52.5,50.9,29.95,South,183,11.0,19.0,94,0.00,,,0.00,meteohub,2013-06-07 06:17:00,
2013-06-06 23:22:00,52.7,51.1,29.95,South,172,7.0,18.0,94,0.00,,,0.00,meteohub,2013-06-07 06:22:00,
2013-06-06 23:27:00,52.5,50.9,29.94,SSW,203,16.0,18.0,94,0.00,,,0.00,meteohub,2013-06-07 06:27:00,
2013-06-06 23:32:00,52.3,50.7,29.94,South,174,12.0,20.0,94,0.00,,,0.00,meteohub,2013-06-07 06:32:00,
2013-06-06 23:37:00,52.3,50.7,29.94,SSW,193,9.0,20.0,94,0.00,,,0.00,meteohub,2013-06-07 06:37:00,
2013-06-06 23:43:00,52.7,51.3,29.94,South,188,13.0,20.0,95,0.00,,,0.00,meteohub,2013-06-07 06:43:00,
2013-06-06 23:48:00,52.7,51.3,29.95,South,189,12.0,18.0,95,0.00,,,0.00,meteohub,2013-06-07 06:48:00,
2013-06-06 23:53:00,52.5,50.9,29.95,South,191,13.0,18.0,94,0.00,,,0.00,meteohub,2013-06-07 06:53:00,
2013-06-06 23:58:00,52.3,50.7,29.95,SSW,199,14.0,18.0,94,0.00,,,0.00,meteohub,2013-06-07 06:58:00,